Regional Weather Roundup
Issued by NWS

Home | Current Version | Previous Version | Graphics & Text | Print | Product List | Glossary On
Versions: 1 2 3 4 5 6 7 8 9 10 11 12 13 14 15 16 17 18 19 20 21 22 23 24 25 26 27 28 29 30 31 32 33 34 35 36 37 38 39 40 41 42 43 44 45 46 47 48 49 50
000
ASUS43 KOAX 280003
RWRNE

WEATHER ROUNDUP FOR NEBRASKA
NATIONAL WEATHER SERVICE OMAHA NE
700 PM CDT SUN MAY 27 2018

NOTES: SATELLITE DATA IS BEING USED TO AUGMENT CLOUD COVER ABOVE
       12000 FEET.
       "FAIR" INDICATES FEW OR NO CLOUDS BELOW 12,000 FEET WITH NO
       SIGNIFICANT WEATHER AND/OR OBSTRUCTIONS TO VISIBILITY.


NEZ001>004-019>022-054>056-280100-
NEBRASKA PANHANDLE

CITY           SKY/WX    TMP DP  RH WIND       PRES   REMARKS
SCOTTSBLUFF    CLOUDY    79  61  53 NE9       29.82R
6HR MIN TEMP:  77; 6HR MAX TEMP:  87;

ALLIANCE       CLOUDY    80  65  59 SE20G32   29.82S
6HR MIN TEMP:  78; 6HR MAX TEMP:  85;

CHADRON        CLOUDY    78  62  57 NE16G26   29.81F
6HR MIN TEMP:  76; 6HR MAX TEMP:  83;

GORDON         FAIR      79  64  60 NE17G24   29.83F
6HR MIN TEMP:  79; 6HR MAX TEMP:  84;

KIMBALL        LGT RAIN  74  43  33 SW23G30   29.89R
SIDNEY         TSTM      71  59  65 E9        29.82S
6HR MIN TEMP:  71; 6HR MAX TEMP:  87; 6HR PCP: TRACE;

$$

NEZ057>060-069>072-079>082-280100-
SOUTHWEST NEBRASKA

CITY           SKY/WX    TMP DP  RH WIND       PRES   REMARKS
NORTH PLATTE   CLOUDY    78  62  57 NE5       29.81R
6HR MIN TEMP:  78; 6HR MAX TEMP:  91;

IMPERIAL       CLOUDY    80  59  48 E15       29.73F THUNDER
6HR MIN TEMP:  80; 6HR MAX TEMP:  92;

LEXINGTON      CLOUDY    86  55  33 SE14      29.81R
MCCOOK         CLOUDY    88  56  33 SE17G29   29.75S
6HR MIN TEMP:  88; 6HR MAX TEMP:  94;

OGALLALA       CLOUDY    70  61  71 NE9       29.77F
$$

NEZ005>010-023>029-035>040-094-280100-
NORTH CENTRAL NEBRASKA

CITY           SKY/WX    TMP DP  RH WIND       PRES   REMARKS
VALENTINE      CLOUDY    90  62  39 S12       29.80R HX  90
6HR MIN TEMP:  90; 6HR MAX TEMP:  95;

AINSWORTH      PTSUNNY   83  65  56 S6        29.83S
BROKEN BOW     CLOUDY    85  59  41 SE9       29.82S
6HR MIN TEMP:  85; 6HR MAX TEMP:  93;

O`NEILL        MOSUNNY   87  61  41 S6        29.81R
ORD            MOSUNNY   88  55  32 S8        29.78S
6HR MIN TEMP:  88; 6HR MAX TEMP:  94;

THEDFORD       CLOUDY    81  59  46 S3        29.87R
$$

NEZ041-046>049-061>064-073>077-083>087-280100-
SOUTH CENTRAL NEBRASKA

CITY           SKY/WX    TMP DP  RH WIND       PRES   REMARKS
GRAND ISLAND   SUNNY     93  54  26 S15       29.80F HX  91
6HR MIN TEMP:  92; 6HR MAX TEMP:  98;

AURORA         SUNNY     93  52  24 S15G24    29.80F HX  90
HASTINGS       SUNNY     92  51  24 S14G28    29.80F
6HR MIN TEMP:  90; 6HR MAX TEMP:  95;

HEBRON         SUNNY     96  52  22 S15G23    29.80F HX  93
HOLDREGE       MOSUNNY   88  51  27 S22G30    29.80F
KEARNEY        SUNNY     90  53  28 S21       29.79F
YORK           SUNNY     93  54  26 S16       29.81F HX  91
$$

NEZ011>018-030>034-042>045-280100-
NORTHEAST NEBRASKA

CITY           SKY/WX    TMP DP  RH WIND       PRES   REMARKS
NORFOLK        MOSUNNY   94  55  26 S13       29.77F HX  92
6HR MIN TEMP:  94; 6HR MAX TEMP:  97;

ALBION         SUNNY     95  52  23 S15G25    29.79F HX  92
BLAIR          MOSUNNY   96  59  29 S12       29.82S HX  95
COLUMBUS       SUNNY     97  56  25 S15       29.79F HX  95
FREMONT        PTSUNNY   95  57  28 S8        29.82S HX  94
TEKAMAH        MOSUNNY   98  58  26 S12       29.79S HX  97
6HR MIN TEMP:  97; 6HR MAX TEMP: 102;

WAYNE          MOSUNNY   91  55  29 S13       29.80S
$$

NEZ050>053-065>068-078-088>093-280100-
SOUTHEAST NEBRASKA

CITY           SKY/WX    TMP DP  RH WIND       PRES   REMARKS
LINCOLN        CLOUDY    92  61  35 SE9       29.82S HX  92
6HR MIN TEMP:  92; 6HR MAX TEMP:  97;

OMAHA EPPLEY   PTSUNNY   96  60  30 W9        29.80S HX  96
6HR MIN TEMP:  96; 6HR MAX TEMP: 101;

BEATRICE       SUNNY     95  60  31 SE12      29.82S HX  94
FALLS CITY     MOSUNNY   91  61  36 S8        29.82S HX  91
6HR MIN TEMP:  91; 6HR MAX TEMP:  98;

NEBRASKA CITY  CLOUDY    92  58  32 SW10      29.83S HX  91
PLATTSMOUTH    MOSUNNY   95  60  30 S8        29.82F HX  95
$$

NEZ044-045-051>053-067-280100-
OMAHA AREA

CITY           SKY/WX    TMP DP  RH WIND       PRES   REMARKS
OMAHA EPPLEY   PTSUNNY   96  60  30 W9        29.80S HX  96
6HR MIN TEMP:  96; 6HR MAX TEMP: 101;

BLAIR          MOSUNNY   96  59  29 S12       29.82S HX  95
FREMONT        PTSUNNY   95  57  28 S8        29.82S HX  94
MILLARD        PTSUNNY   95  61  32 SW3       29.81S HX  95
OFFUTT AFB     MOSUNNY   96  60  30 SW6       29.80S HX  95
PLATTSMOUTH    MOSUNNY   95  60  30 S8        29.82F HX  95
WAHOO          FAIR      96  48  19 SW8       29.82S HX  92
$$




USA.gov is the U.S. government's official web portal to all federal, state and local government web resources and services.